Hourly Data Report for December 22, 2019

EUREKA CLIMATE
NUNAVUT
Current Station Operator: ECCC - MSC

79°59'21.000" N
85°56'02.000" W
10.00 m
2401199
71613
NEK

Download Data

Hourly Data (December 2019)
Hourly Data Report for December 22, 2019
TIME
LST
Temp Definition
°C
Dew Point Definition
°C
Rel Hum Definition
%
Precip. Amount Definition
mm

Wind Dir Definition
10's deg

Wind Spd Definition
km/h
Visibility Definition
km
Stn Press Definition
kPa
Hmdx Definition


Wind Chill Definition


Weather Definition


00:00 -30.1 -33.0 76 0.0 7 4   100.96   -35 LegendNANA
01:00 -28.6 -31.3 78 0.0 10 8   100.99   -36 LegendNANA
02:00 -29.0 -31.9 76 0.0 6 13   101.01   -39 LegendNANA
03:00 -30.0 -33.0 75 0.0 6 12   101.07   -40 LegendNANA
04:00 -29.4 -32.4 76 0.0 9 7   101.12   -37 LegendNANA
05:00 -29.7 -32.5 77 0.0 7 9   101.15   -38 LegendNANA
06:00 -29.6 -32.3 78 0.0 5 13   101.17   -40 LegendNANA
07:00 -30.6 -33.5 76 0.0 10 7   101.17   -38 LegendNANA
08:00 -29.5 -31.9 80 0.0 5 13   101.20   -40 LegendNANA
09:00 -31.8 -34.8 75 0.0 10 4   101.24   -36 LegendNANA
10:00 -32.3 -35.3 74 0.0 9 4   101.23   -37 LegendNANA
11:00 -31.2 -34.0 76 0.0 6 4   101.21   -36 LegendNANA
12:00 -32.0 -35.0 75 0.0 9 4   101.22   -37 LegendNANA
13:00 -31.3 -34.2 76 0.0 3 6   101.22   -38 LegendNANA
14:00 -32.9 -36.1 73 0.0 12 5   101.21   -39 LegendNANA
15:00 -32.9 -36.0 74 0.0 11 5   101.21   -39 LegendNANA
16:00 -32.8 -36.0 73 0.0 10 5   101.21   -39 LegendNANA
17:00 -32.3 -35.4 74 0.0 10 3   101.19   -36 LegendNANA
18:00 -32.4 -35.3 75 0.0 5 6   101.15   -39 LegendNANA
19:00 -33.0 -36.1 73 0.0 12 4   101.14   -38 LegendNANA
20:00 -32.0 -35.0 74 0.0 34 5   101.12   -38 LegendNANA
21:00 -31.4 -34.4 75 0.0 11 4   101.11   -36 LegendNANA
22:00 -30.8 -33.8 76 0.0 13 4   101.10   -35 LegendNANA
23:00 -30.7 -33.6 76 0.0 12 5   101.10   -36 LegendNANA

Notes on Data Quality.

Legend

  • E = Estimated
  • M = Missing
  • NA = Not Available*
  • [empty] = Indicates an unobserved value
Date modified: